Content
SEND FEEDBACK

Daily
Averages
Monthly
Summary
United States of America

NEW YORK - CENTRAL PARK, NEW YORK


Home > North America > United States > New York
Elevation: 14 feet     Latitude: 40 47N     Longitude: 073 58W

WEATHER
 
SELECT A DAY
Number of Records: 151,206;   Date Range: 11/1/95 - 10/21/14
 
SHARE

PRINT THIS DATA

[ ← Previous Day ]
WEATHER ALMANAC - JULY 28, 2013
[ Next Day → ]
[ °C ]   °F
Weather ElementAverageHighLow
Temperature73 °F78.1 °F (4:51 pm)70 °F (3:51 am)
Dewpoint67.3 °F71.1 °F (10:51 pm)63 °F (4:51 am)
Humidity82.8 %97 % (10:51 pm)66 % (4:51 pm)
Barometer29.97 in30.02 in (11:04 pm)29.93 in (3:51 pm)
Wind Speed2.5 mph8.1 mph (2:51 pm)
Weather ElementAverage
Visibility6.9 mi
Wind DirectionNNE (36.5 °)

Weather ElementTotal
Precipitation0.40 in
Cooling Degree Days9.1 (Base 65)
Growing Degree Days24.1 (Base 50)
Averaged from 31 records on July 28, 2013
WEATHER CONDITIONS BREAKOUT
WIND DIRECTION BREAKOUT
WEATHER BY HOUR - JULY 28, 2013
[ °C ]   °F
Local TimeTemperatureDewpointHumidityBarometerVisibilityWind DirectionWind SpeedGust SpeedPrecipitationEventsConditions
1:51 AM71.1 °F64.9 °F81 %29.96 in9.0 miCalmClear
2:51 AM71.1 °F64.9 °F81 %29.96 in8.0 miCalmClear
3:51 AM70.0 °F64.9 °F84 %29.96 in10.0 miCalmClear
4:51 AM71.1 °F63.0 °F75 %29.96 in10.0 miCalmClear
5:51 AM71.1 °F64.0 °F78 %29.96 in10.0 miCalmPartly Cloudy
6:51 AM72.0 °F64.0 °F76 %29.99 in10.0 miCalmClear
7:51 AM73.0 °F64.0 °F73 %29.99 in10.0 miCalmClear
8:51 AM73.9 °F63.0 °F68 %29.98 in10.0 miCalmMostly Cloudy
9:51 AM75.0 °F64.0 °F69 %29.97 in10.0 miVariable3.5 mphOvercast
10:51 AM75.9 °F66.0 °F71 %29.97 in10.0 miNorthMostly Cloudy
11:51 AM75.9 °F66.0 °F71 %29.97 in10.0 miNorthScattered Clouds
12:51 PM75.0 °F64.9 °F71 %29.98 in10.0 miVariable6.9 mphMostly Cloudy
1:51 PM73.9 °F66.9 °F79 %29.98 in7.0 miNorth0.00 inRainLight Rain
2:51 PM75.0 °F68.0 °F79 %29.94 in10.0 miSSE (160°)8.1 mph0.01 inScattered Clouds
3:51 PM77.0 °F66.9 °F71 %29.93 in10.0 miNorthClear
4:51 PM78.1 °F66.0 °F66 %29.93 in10.0 miNorthScattered Clouds
5:51 PM75.9 °F64.9 °F69 %29.96 in10.0 miVariable4.6 mphMostly Cloudy
6:51 PM73.0 °F70.0 °F90 %29.98 in5.0 miCalm0.02 inRainLight Rain
7:11 PM73.0 °F70.0 °F90 %30.00 in2.0 miSouth (180°)4.6 mph0.02 inRainRain
7:33 PM72.0 °F70.0 °F93 %30.00 in4.0 miSSE (160°)3.5 mph0.04 inRainLight Rain
7:46 PM71.6 °F69.8 °F94 %30.01 in2.5 miCalm0.05 inRainLight Rain
7:51 PM72.0 °F70.0 °F93 %29.98 in3.0 miVariable4.6 mph0.05 inRainLight Rain
7:59 PM72.0 °F70.0 °F93 %29.99 in2.5 miSouth (170°)6.9 mph0.02 inRainRain
8:09 PM72.0 °F70.0 °F93 %29.98 in3.0 miSSE (160°)4.6 mph0.04 inRainLight Rain
8:51 PM72.0 °F70.0 °F93 %29.96 in3.0 miSSE (160°)3.5 mph0.05 inMostly Cloudy
9:10 PM72.0 °F70.0 °F93 %29.98 in5.0 miSE (140°)5.8 mphMostly Cloudy
9:31 PM72.0 °F70.0 °F93 %30.00 in3.0 miCalmMostly Cloudy
9:51 PM72.0 °F70.0 °F93 %29.98 in5.0 miNorthOvercast
10:51 PM72.0 °F71.1 °F97 %29.99 in4.0 miVariable3.5 mph0.01 inRainLight Rain
11:04 PM72.0 °F70.0 °F93 %30.02 in5.0 miVariable3.5 mph0.01 inRainLight Rain
11:51 PM71.1 °F70.0 °F96 %29.96 in2.5 miCalm0.08 inRainRain
Hourly data recorded from KNYC, located miles away from New York - Central Park, New York







STORIES FROM OUR PARTNERS